Regional Weather Roundup
Issued by NWS Albany, NY

Home | Current Version | Previous Version | Graphics & Text | Print | Product List | Glossary On
Versions: 1 2 3 4 5 6 7 8 9 10 11 12 13 14 15 16 17 18 19 20 21 22 23 24 25 26 27 28 29 30 31 32 33 34 35 36 37 38 39 40 41 42 43 44 45 46 47 48 49 50
000
ASUS41 KALY 010410
RWRALY

NEW YORK STATE HOURLY WEATHER ROUNDUP
NATIONAL WEATHER SERVICE ALBANY NY
1200 AM EDT TUE SEP 01 2015

NOTE: "FAIR" INDICATES FEW OR NO CLOUDS BELOW 12,000 FEET WITH NO
SIGNIFICANT WEATHER AND/OR NO OBSTRUCTIONS TO VISIBILITY.

NYZ032-033-038>043-046>054-057>066-NYZ062>081-010500-
EAST


CITY           SKY/WX    TMP DP  RH WIND       PRES   REMARKS
ALBANY         PTCLDY    72  62  71 NW5       29.99R
GLENS FALLS    FAIR      69  62  78 N3        29.99R
POUGHKEEPSIE   CLEAR     69  66  90 CALM      29.99R
NEWBURGH       CLEAR     73  70  88 CALM      30.01S
MONTGOMERY     CLEAR     69  67  93 S3        30.01R
WHITE PLAINS   CLEAR     73  67  81 NW3       30.00R
ISLIP          MOCLDY    79  68  69 W7        29.97R
NEW YORK CITY  MOCLDY    84  66  54 W9        29.98S
CENTRAL PARK   PTCLDY    82  65  56 W7        30.02R
$$

NYZ005>009-017-018-044>046-055-056-010500-
CENTRAL


CITY           SKY/WX    TMP DP  RH WIND       PRES   REMARKS
FULTON         CLEAR     63  61  93 CALM      30.02F FOG
SYRACUSE       PTCLDY    66  64  93 CALM      30.02F
ROME           PTCLDY    64  62  93 NE3       30.04S
ELMIRA         CLEAR     62  61  96 CALM      30.06S FOG
BINGHAMTON     CLEAR     66  64  93 CALM      30.09R FOG
MONTICELLO     CLEAR     66  64  94 W3        30.08S
$$

NYZ026>034-041>043-010500-
NORTH


CITY           SKY/WX    TMP DP  RH WIND       PRES   REMARKS
WATERTOWN      CLEAR     65  64  97 CALM      30.01S FOG
FORT DRUM      NOT AVBL
MASSENA        FOG       59  58  96 CALM      30.01S VSB 1/4
SARANAC LAKE   MOCLDY    59  57  93 CALM      30.05S FOG
PLATTSBURGH    PTCLDY    66  60  81 W5        29.98S
$$

NYZ001>004-010>016-019>021-010500-
WEST


CITY           SKY/WX    TMP DP  RH WIND       PRES   REMARKS
NIAGARA FALLS  CLEAR     69  67  93 SW6       30.03S FOG
BUFFALO        PTCLDY    72  69  90 SW9       30.04F FOG
DUNKIRK        CLEAR     68  65  90 SW7       30.07S
JAMESTOWN        N/A     64  61  88 S3        30.12S VSB<1/4
WELLSVILLE     CLEAR     66  62  87 W5        30.14S
ROCHESTER      MOCLDY    69  66  90 SW5       30.04S
PENN YAN       CLEAR     69  65  86 SW6       30.07R
$$

             KEY
       WCI = WIND CHILL INDEX
       VSB = VISIBILITY
       HX  = HEAT INDEX
$$


USA.gov is the U.S. government's official web portal to all federal, state and local government web resources and services.